When you browse on this site, cookies collect data to enhance your experience and personalize the content and advertising you see.
Visit our Privacy Policy to learn more. By continuing to use the site, you agree to this use of cookies and data.
  • In France
  • List of Countries
  • For 7 days
  • Water Temperature
  • Satellite Maps
  • Weather Map
  • Weather Widgets
  • user-avatar
    Login

    Hourly Weather Gold Coast

    Today, 24 March, Sunday

    Time Temperature Precipitation Wind Pressure Humidity
    00:00 +25°C° 0 mm 3 mps 757 mmHg 90%
    01:00 +25°C° 0 mm 3 mps 757 mmHg 90%
    02:00 +25°C° 0 mm 3 mps 757 mmHg 90%
    03:00 +24°C° 0 mm 3 mps 756 mmHg 90%
    04:00 +24°C° 0 mm 2 mps 756 mmHg 90%
    05:00 +24°C° 0 mm 2 mps 757 mmHg 87%
    06:00 +25°C° 0 mm 2 mps 757 mmHg 85%
    07:00 +25°C° 0 mm 2 mps 757 mmHg 82%
    08:00 +28°C° 0 mm 3 mps 757 mmHg 71%
    09:00 +30°C° 0 mm 3 mps 757 mmHg 61%
    10:00 +34°C° 0 mm 2 mps 757 mmHg 53%
    11:00 +35°C° 0 mm 2 mps 757 mmHg 48%
    12:00 +36°C° 0 mm 3 mps 756 mmHg 44%
    13:00 +37°C° 0 mm 3 mps 756 mmHg 40%
    14:00 +36°C° 0 mm 4 mps 756 mmHg 43%
    15:00 +35°C° 0 mm 4 mps 755 mmHg 47%
    16:00 +35°C° 0 mm 4 mps 755 mmHg 51%
    17:00 +33°C° 0 mm 4 mps 755 mmHg 60%
    18:00 +29°C° 0 mm 4 mps 755 mmHg 68%
    19:00 +27°C° 0 mm 3 mps 756 mmHg 77%
    20:00 +27°C° 0 mm 3 mps 756 mmHg 79%
    21:00 +26°C° 0 mm 3 mps 756 mmHg 81%
    22:00 +26°C° 0 mm 3 mps 757 mmHg 82%
    23:00 +26°C° 0 mm 3 mps 757 mmHg 83%

    Tomorrow, 25 March, Monday

    Time Temperature Precipitation Wind Pressure Humidity
    00:00 +25°C° 0 mm 3 mps 757 mmHg 83%
    01:00 +25°C° 0 mm 3 mps 757 mmHg 83%
    02:00 +25°C° 0 mm 3 mps 756 mmHg 83%
    03:00 +24°C° 0 mm 3 mps 756 mmHg 84%
    04:00 +24°C° 0 mm 3 mps 756 mmHg 84%
    05:00 +24°C° 0 mm 3 mps 757 mmHg 82%
    06:00 +25°C° 0 mm 3 mps 757 mmHg 81%
    07:00 +25°C° 0 mm 3 mps 757 mmHg 79%
    08:00 +27°C° 0 mm 3 mps 757 mmHg 70%
    09:00 +29°C° 0 mm 4 mps 757 mmHg 61%
    10:00 +32°C° 0 mm 4 mps 757 mmHg 53%
    11:00 +33°C° 0 mm 4 mps 757 mmHg 49%
    12:00 +34°C° 0 mm 4 mps 756 mmHg 46%
    13:00 +35°C° 0 mm 5 mps 756 mmHg 43%
    14:00 +34°C° 0 mm 4 mps 756 mmHg 47%
    15:00 +33°C° 0 mm 4 mps 755 mmHg 51%
    16:00 +33°C° 0 mm 4 mps 755 mmHg 56%
    17:00 +30°C° 0 mm 4 mps 755 mmHg 65%
    18:00 +28°C° 0 mm 4 mps 756 mmHg 73%
    19:00 +27°C° 0 mm 4 mps 756 mmHg 82%
    20:00 +26°C° 0 mm 4 mps 757 mmHg 83%
    21:00 +26°C° 0 mm 4 mps 757 mmHg 85%
    22:00 +26°C° 0 mm 4 mps 757 mmHg 86%
    23:00 +26°C° 0 mm 4 mps 757 mmHg 87%

    Day after tomorrow, 26 March, Tuesday

    Time Temperature Precipitation Wind Pressure Humidity
    00:00 +26°C° 0 mm 4 mps 757 mmHg 88%
    01:00 +26°C° 0 mm 4 mps 757 mmHg 88%
    02:00 +26°C° 0 mm 4 mps 757 mmHg 88%
    03:00 +26°C° 0 mm 4 mps 757 mmHg 88%
    04:00 +26°C° 0 mm 4 mps 757 mmHg 88%
    05:00 +26°C° 0 mm 4 mps 757 mmHg 87%
    06:00 +26°C° 0 mm 3 mps 758 mmHg 85%
    07:00 +26°C° 0 mm 3 mps 758 mmHg 84%
    08:00 +27°C° 0 mm 3 mps 758 mmHg 75%
    09:00 +29°C° 0 mm 3 mps 758 mmHg 67%
    10:00 +31°C° 0 mm 3 mps 758 mmHg 58%
    11:00 +31°C° 0 mm 2 mps 758 mmHg 60%
    12:00 +30°C° 0 mm 2 mps 757 mmHg 62%
    13:00 +30°C° 0 mm 1 mps 757 mmHg 64%
    14:00 +30°C° 0 mm 1 mps 757 mmHg 65%
    15:00 +30°C° 0 mm 2 mps 757 mmHg 65%
    16:00 +30°C° 0 mm 2 mps 757 mmHg 65%
    17:00 +29°C° 0.1 mm 2 mps 757 mmHg 71%
    18:00 +28°C° 0.1 mm 2 mps 758 mmHg 77%
    19:00 +27°C° 0.1 mm 1 mps 758 mmHg 82%
    20:00 +26°C° 0.3 mm 2 mps 759 mmHg 86%
    21:00 +26°C° 0.3 mm 3 mps 759 mmHg 90%
    22:00 +25°C° 0.3 mm 4 mps 760 mmHg 93%
    23:00 +25°C° 1.7 mm 5 mps 760 mmHg 94%

    27 March, Wednesday

    Time Temperature Precipitation Wind Pressure Humidity
    00:00 +23°C° 1.7 mm 5 mps 760 mmHg 94%
    01:00 +23°C° 1.7 mm 6 mps 760 mmHg 95%
    02:00 +23°C° 1.6 mm 6 mps 759 mmHg 95%
    03:00 +22°C° 1.6 mm 6 mps 759 mmHg 95%
    04:00 +22°C° 1.6 mm 6 mps 759 mmHg 95%
    05:00 +22°C° 1.2 mm 6 mps 760 mmHg 95%
    06:00 +21°C° 1.2 mm 5 mps 760 mmHg 95%
    07:00 +21°C° 1.2 mm 5 mps 761 mmHg 95%
    08:00 +21°C° 1.5 mm 5 mps 761 mmHg 95%
    09:00 +21°C° 1.5 mm 5 mps 761 mmHg 95%
    10:00 +21°C° 1.5 mm 4 mps 761 mmHg 95%
    11:00 +22°C° 1 mm 4 mps 761 mmHg 95%
    12:00 +22°C° 1 mm 4 mps 761 mmHg 95%
    13:00 +22°C° 1 mm 4 mps 760 mmHg 95%
    14:00 +22°C° 0.7 mm 3 mps 760 mmHg 94%
    15:00 +24°C° 0.7 mm 3 mps 760 mmHg 94%
    16:00 +24°C° 0.7 mm 3 mps 759 mmHg 94%
    17:00 +24°C° 0.9 mm 3 mps 760 mmHg 94%
    18:00 +22°C° 0.9 mm 3 mps 760 mmHg 95%
    19:00 +22°C° 0.9 mm 3 mps 760 mmHg 95%
    20:00 +22°C° 0.9 mm 3 mps 760 mmHg 95%
    21:00 +22°C° 0.9 mm 3 mps 760 mmHg 95%
    22:00 +22°C° 0.9 mm 3 mps 760 mmHg 95%
    23:00 +23°C° 1.2 mm 2 mps 760 mmHg 95%

    28 March, Thursday

    Time Temperature Precipitation Wind Pressure Humidity
    00:00 +23°C° 1.2 mm 2 mps 759 mmHg 95%
    01:00 +23°C° 1.2 mm 2 mps 759 mmHg 95%
    02:00 +21°C° 1.3 mm 2 mps 759 mmHg 95%
    03:00 +21°C° 1.3 mm 2 mps 758 mmHg 95%
    04:00 +21°C° 1.3 mm 3 mps 758 mmHg 95%
    05:00 +21°C° 1.6 mm 3 mps 758 mmHg 95%
    06:00 +21°C° 1.6 mm 3 mps 759 mmHg 95%
    07:00 +21°C° 1.6 mm 3 mps 759 mmHg 95%
    08:00 +22°C° 0.8 mm 3 mps 759 mmHg 94%
    09:00 +22°C° 0.8 mm 3 mps 759 mmHg 94%
    10:00 +22°C° 0.8 mm 3 mps 760 mmHg 93%
    11:00 +24°C° 0.5 mm 2 mps 759 mmHg 93%
    12:00 +24°C° 0.5 mm 2 mps 758 mmHg 92%
    13:00 +24°C° 0.5 mm 2 mps 758 mmHg 92%
    14:00 +24°C° 0.3 mm 2 mps 758 mmHg 92%
    15:00 +24°C° 0.3 mm 3 mps 757 mmHg 92%
    16:00 +24°C° 0.3 mm 3 mps 757 mmHg 92%
    17:00 +22°C° 0.2 mm 3 mps 757 mmHg 92%
    18:00 +22°C° 0.2 mm 3 mps 758 mmHg 93%
    19:00 +21°C° 0.2 mm 3 mps 758 mmHg 94%
    20:00 +21°C° 0.4 mm 3 mps 758 mmHg 94%
    21:00 +21°C° 0.4 mm 3 mps 758 mmHg 95%
    22:00 +21°C° 0.4 mm 3 mps 758 mmHg 95%
    23:00 +21°C° 0.2 mm 3 mps 758 mmHg 95%

    29 March, Friday

    Time Temperature Precipitation Wind Pressure Humidity
    00:00 +21°C° 0.2 mm 2 mps 757 mmHg 95%
    01:00 +21°C° 0.2 mm 2 mps 757 mmHg 95%
    02:00 +21°C° 0.3 mm 2 mps 757 mmHg 95%
    03:00 +21°C° 0.3 mm 2 mps 756 mmHg 95%
    04:00 +21°C° 0.3 mm 2 mps 756 mmHg 96%
    05:00 +23°C° 0.5 mm 2 mps 757 mmHg 95%
    06:00 +23°C° 0.5 mm 2 mps 757 mmHg 95%
    07:00 +23°C° 0.5 mm 2 mps 757 mmHg 95%
    08:00 +24°C° 0.9 mm 2 mps 757 mmHg 92%
    09:00 +25°C° 0.9 mm 2 mps 757 mmHg 89%
    10:00 +26°C° 0.9 mm 2 mps 757 mmHg 86%
    11:00 +27°C° 0.9 mm 2 mps 756 mmHg 86%
    12:00 +27°C° 0.9 mm 3 mps 755 mmHg 86%
    13:00 +27°C° 0.9 mm 3 mps 755 mmHg 86%
    14:00 +27°C° 0.4 mm 3 mps 754 mmHg 85%
    15:00 +27°C° 0.4 mm 3 mps 754 mmHg 84%
    16:00 +27°C° 0.4 mm 3 mps 754 mmHg 83%
    17:00 +26°C° 0 mm 3 mps 754 mmHg 85%
    18:00 +25°C° 0 mm 2 mps 754 mmHg 88%
    19:00 +24°C° 0 mm 2 mps 755 mmHg 90%
    20:00 +24°C° 0.1 mm 2 mps 755 mmHg 91%
    21:00 +24°C° 0.1 mm 2 mps 755 mmHg 92%
    22:00 +24°C° 0.1 mm 2 mps 755 mmHg 93%
    23:00 +24°C° 0.3 mm 2 mps 755 mmHg 93%
    Show more